This demonstration page uses our WeatherBlox Daily Observations layout. Learn more.

Left ArrowRight Arrow

Hourly Observations for June 6, 2019

Temp ( °F °C ) Dew Point ( °F °C ) Humidity (%) Winds ( mph kmh ) Pressure ( in mb ) Visibility ( mi km ) Precip ( " mm )
12:56 am 00:56 Clear 69 20.6 59 15 70 70 N 9 15 29.85 1011 10 16 0.00 0.00
1:56 am 01:56 Clear 68 20 58 14.4 70 70 N 12 19 29.84 1011 10 16 0.00 0.00
2:56 am 02:56 Mostly Clear 67 19.4 58 14.4 73 73 N 10 17 29.83 1010 10 16 0.00 0.00
3:56 am 03:56 Clear 67 19.4 58 14.4 73 73 N 9 15 29.82 1010 10 16 0.00 0.00
4:56 am 04:56 Mostly Cloudy 67 19.4 57 13.9 71 71 N 9 15 29.82 1010 10 16 0.00 0.00
5:56 am 05:56 Clear 66 18.9 57 13.9 73 73 NNW 7 11 29.83 1010 10 16 0.00 0.00
6:56 am 06:56 Mostly Cloudy 65 18.3 57 13.9 76 76 N 9 15 29.86 1011 10 16 0.00 0.00
7:56 am 07:56 Sunny 67 19.4 59 15 76 76 N 8 13 29.87 1012 10 16 0.00 0.00
8:56 am 08:56 Sunny 70 21.1 60 15.6 71 71 NE 6 9 29.88 1012 10 16 0.00 0.00
9:56 am 09:56 Partly Cloudy 73 22.8 62 16.7 69 69 NNE 7 11 29.87 1011 10 16 0.00 0.00
10:56 am 10:56 Sunny 75 23.9 63 17.2 66 66 NNE 9 15 29.86 1011 10 16 0.00 0.00
11:56 am 11:56 Sunny 77 25 64 17.8 64 64 ENE 7 11 29.87 1012 10 16 0.00 0.00
12:56 pm 12:56 Partly Cloudy 81 27.2 66 18.9 61 61 VRB 5 7 29.86 1011 10 16 0.00 0.00
1:56 pm 13:56 Mostly Cloudy 81 27.2 64 17.8 57 57 E 10 17 29.85 1011 10 16 0.00 0.00
2:56 pm 14:56 Sunny 83 28.3 63 17.2 51 51 SSE 10 17 29.84 1011 10 16 0.00 0.00
3:56 pm 15:56 Mostly Cloudy 81 27.2 66 18.9 61 61 N 8 13 29.84 1011 10 16 0.00 0.00
4:56 pm 16:56 Mostly Sunny 80 26.7 68 20 67 67 NNE 10 17 29.83 1010 10 16 0.00 0.00
5:56 pm 17:56 Sunny 83 28.3 64 17.8 53 53 NE 10 17 29.83 1010 10 16 0.00 0.00
6:56 pm 18:56 Cloudy 79 26.1 60 15.6 52 52 ESE 12 19 29.84 1011 10 16 0.00 0.00
7:56 pm 19:56 Partly Cloudy 80 26.7 61 16.1 52 52 E 12 19 29.84 1011 10 16 0.00 0.00
8:56 pm 20:56 Sunny 76 24.4 61 16.1 60 60 E 6 9 29.85 1011 10 16 0.00 0.00
9:56 pm 21:56 Clear 73 22.8 62 16.7 69 69 E 5 7 29.85 1011 10 16 0.00 0.00
10:56 pm 22:56 Clear 71 21.7 62 16.7 73 73 E 6 9 29.86 1011 10 16 0.00 0.00
11:56 pm 23:56 Clear 69 20.6 63 17.2 81 81 SSE 5 7 29.85 1011 10 16 0.00 0.00

Powered by AerisWeather